Tracking 35275 objects as of 8-Sep-2026
HD Live streaming from Space Station
objects crossing your sky now

SL-12 R/B

Track SL-12 R/B now!


NORAD ID: 20413
Int'l Code: 1983-020D
Launch date: March 23, 1983
Source: Commonwealth of Independent States (former USSR) (CIS)
Launch site: TYURATAM MISSILE AND SPACE COMPLEX (TTMTR)

Note: This is a ROCKET BODY
Your satellite tracking list
Your tracking list is empty




NASA's NSSDC Master Catalog

Two Line Element Set (TLE):
1 20413U 83020D   26253.35028188  .00000071  00000-0  00000+0 0  9993
2 20413  76.2057  55.4068 7407770  53.4809   0.3092  0.24725029 11555
Source of the keplerian elements: AFSPC